KNUW Airport Information

Runway Information
Runway 07 Length 8000 ft width 200 ft
Elevation 18 ft Threshold 0 ft Heading 87
Runway 25 Length 8000 ft Width 200 ft
Elevation 23 ft Threshold 0 ft Heading 267
Runway 14 Length 8001 ft width 200 ft
Elevation 39 ft Threshold 0 ft Heading 155
Runway 32 Length 8001 ft Width 200 ft
Elevation 47 ft Threshold 0 ft Heading 335
Airport Frequencies
Type A/D Name APP/DEP Frequency 118.2 MHZ
Type ATIS Name ATIS Frequency 134.15 MHZ
Type CLD Name CLNC DEL Frequency 124.15 MHZ
Type GND Name GND Frequency 121.75 MHZ
Type OPS Name BASE OPS Frequency 35.01 MHZ
Type PMSV Name PMSV METRO Frequency 34.34 MHZ
Type TWR Name TWR Frequency 127.9 MHZ
Airport Navaids
Airport Weather Information & NOTAM
ADDS - METARS form results

(0948 UTC 23 July 2018)
 
METAR text: KNUW 230856Z 13003KT 10SM CLR 13/10 A3015 RMK AO2 SLP208 T01330100 55003 $
Conditions at: KNUW (WHIDBEY IS. NAS , WA, US) observed 0856 UTC 23 July 2018
Temperature: 13.3°C (56°F)
Dewpoint: 10.0°C (50°F) [RH = 80%]
Pressure (altimeter): 30.15 inches Hg (1021.1 mb)
[Sea-level pressure: 1020.8 mb]
Winds: from the SE (130 degrees) at 3 MPH (3 knots; 1.6 m/s)
Visibility: 10 or more miles (16+ km)
Ceiling: at least 12,000 feet AGL
Clouds: sky clear below 12,000 feet AGL
Weather:
SOME DATA ABOVE MAY BE INACCURATE!!!
"$" is an indication the sensor requires maintenance